Overview Statistics Trail Chart Weather Telemetry Raw packets
 

This is the latest recevied weather packets stored in our database for station/object KB8TTR. If no packets are shown the sender has not sent any weather packets the latest 10 day(s).

<< 93 94 95 96 97 98 99 >>
Time Temp. Humidity Pressure Rain* Wind** Luminosity Snow
1787922523 21.67° C 73% 1022.2 hPa 0 mm - 78 W/m² -
1787922229 22.22° C 73% 1022.3 hPa 0 mm - 77 W/m² -
1787921920 21.67° C 73% 1022.3 hPa 0 mm - 77 W/m² -
1787921615 21.67° C 72% 1022.3 hPa 0 mm - 144 W/m² -
1787921313 21.67° C 73% 1022.2 hPa 0 mm - 154 W/m² -
1787921010 21.67° C 74% 1022.1 hPa 0 mm - 106 W/m² -
1787920705 21.11° C 75% 1022.1 hPa 0 mm - 99 W/m² -
1787920404 20.56° C 76% 1021.9 hPa 0 mm - 98 W/m² -
1787920101 20.56° C 76% 1021.9 hPa 0 mm - 80 W/m² -
1787919796 21.11° C 75% 1022.1 hPa 0 mm - 75 W/m² -
1787919496 21.11° C 76% 1021.8 hPa 0 mm - 77 W/m² -
1787919192 21.11° C 76% 1021.9 hPa 0 mm - 89 W/m² -
1787918892 20.56° C 77% 1021.7 hPa 0 mm - 92 W/m² -
1787918587 20° C 80% 1021.6 hPa 0 mm - 82 W/m² -
1787918285 20° C 80% 1021.7 hPa 0 mm - 59 W/m² -
1787917980 20° C 81% 1021.5 hPa 0 mm - 49 W/m² -
1787917675 20° C 80% 1021.6 hPa 0 mm - 43 W/m² -
1787917371 20° C 80% 1021.5 hPa 0 mm - 37 W/m² -
1787917071 19.44° C 80% 1021.3 hPa 0 mm - 31 W/m² -
1787916767 19.44° C 81% 1021.5 hPa 0 mm - 27 W/m² -
1787916466 19.44° C 82% 1021.4 hPa 0 mm - 21 W/m² -
1787916162 19.44° C 82% 1021.4 hPa 0 mm - 17 W/m² -
1787915857 19.44° C 83% 1021.3 hPa 0 mm - 13 W/m² -
1787915552 18.89° C 83% 1021.1 hPa 0 mm - 8 W/m² -
1787915251 18.89° C 85% 1021.1 hPa 0 mm - 5 W/m² -

* Rain latest hour (hover to see other rain measurements)
** Current wind speed in m/s (hover to see current wind gust speed)